Flag for U.S.A. Weather past 2 weeks in St. Croix Falls, Wisconsin, U.S.A.

Now
69 °F

Sunny.


Feels Like: 69 °F
Forecast: 52 / 74 °F
Wind: 7 mph from South

Location: L O Simenstad Municipal Airport

Current Time: Jul 1, 2015 at 12:43:16 PM

Latest Report: Jul 1, 2015 at 12:15 PM


Visibility: 10 mi

Pressure: 30.04 "Hg

Humidity: 49%

Dew point: 49 °F

Location of St. Croix FallsLocation

Historic Weather in St. Croix Falls — Graph

°F

St. Croix Falls temperature yesterday

Maximum temperature yesterday: 72 °F (at 3:15 PM)
Minimum temperature yesterday: 58 °F (at 5:55 AM)
Average temperature yesterday: 65 °F

Past Weeks' High & Low Weather Summary

 TemperatureHumidityPressure
High82 °F (Jun 27, 4:15 PM)100% (Jun 17, 4:55 PM)30.24 "Hg (Jun 17, 4:55 PM)
Low51 °F (Jun 23, 5:55 AM)35% (Jun 23, 3:55 PM)29.44 "Hg (Jun 22, 9:55 AM)
Average67 °F77%29.98 "Hg
* Reported Jun 16 11:15 AM — Jul 1 11:15 AM, St. Croix Falls, Weather by CustomWeather, © 2015

Note: Actual official high and low records may vary slightly from our data, if they occured in-between our weather recording intervals... More about our weather records

Advertising

St. Croix Falls weather history for previous 24 hours

 ConditionsComfort  
Time TempWeatherWind HumidityBarometerVisibility
11:15 AM
Wed, Jul 1
66 °FSunny.7 mph51%30.05 "Hg10 mi
10:55 AM66 °FSunny.8 mph49%30.05 "Hg10 mi
10:35 AM65 °FSunny.7 mph51%30.04 "Hg10 mi
10:15 AM64 °FSunny.6 mph56%30.04 "Hg10 mi
9:55 AM62 °FSunny.No wind61%30.05 "Hg10 mi
9:15 AM60 °FSunny.7 mph65%30.05 "Hg10 mi
8:55 AM59 °FSunny.5 mph68%30.05 "Hg10 mi
8:35 AM59 °FSunny.5 mph70%30.05 "Hg10 mi
8:15 AM58 °FSunny.5 mph73%30.04 "Hg10 mi
7:55 AM56 °FSunny.5 mph74%30.04 "Hg10 mi
7:35 AM56 °FSunny.3 mph75%30.04 "Hg10 mi
7:15 AM55 °FSunny.No wind79%30.04 "Hg10 mi
6:55 AM54 °FSunny.3 mph82%30.03 "Hg10 mi
6:35 AM54 °FSunny.No wind79%30.03 "Hg10 mi
6:15 AM54 °FClear.No wind81%30.03 "Hg10 mi
5:55 AM54 °FClear.3 mph92%30.02 "Hg10 mi
5:15 AM54 °FClear.No wind100%30.02 "Hg10 mi
4:55 AM54 °FClear.No wind100%30.01 "Hg10 mi
4:35 AM54 °FClear.3 mph100%30.02 "Hg10 mi
4:15 AM54 °FClear.No wind100%30.02 "Hg10 mi
3:55 AM54 °FClear.3 mph100%30.01 "Hg10 mi
3:35 AM53 °FClear.No wind100%30.01 "Hg10 mi
3:15 AM54 °FClear.No wind100%30.01 "Hg10 mi
2:55 AM55 °FClear.No wind100%30.01 "Hg10 mi
2:15 AM55 °FClear.No wind94%30.01 "Hg10 mi
1:55 AM57 °FClear.No wind82%30.01 "Hg10 mi
1:35 AM57 °FClear.No wind83%30.00 "Hg10 mi
1:15 AM57 °FClear.No wind84%30.00 "Hg10 mi
12:55 AM59 °FClear.No wind78%30.01 "Hg10 mi
12:35 AM59 °FClear.No wind79%30.01 "Hg10 mi
12:15 AM58 °FClear.No wind81%30.00 "Hg10 mi
11:55 PM
Tue, Jun 30
59 °FClear.3 mph80%29.99 "Hg10 mi
11:15 PM59 °FClear.7 mph85%29.99 "Hg10 mi
10:55 PM60 °FClear.7 mph85%29.99 "Hg10 mi
10:35 PM61 °FClear.7 mph81%29.99 "Hg10 mi
10:15 PM62 °FClear.5 mph79%29.99 "Hg10 mi
9:55 PM62 °FSunny.6 mph76%29.99 "Hg10 mi
9:15 PM64 °FSunny.3 mph74%29.98 "Hg10 mi
7:15 PM71 °FSunny.5 mph58%29.96 "Hg10 mi
6:55 PM71 °FSunny.6 mph56%29.96 "Hg10 mi
6:35 PM71 °FSunny.7 mph55%29.95 "Hg10 mi
6:15 PM72 °FScattered clouds.5 mph56%29.95 "Hg10 mi
5:55 PM72 °FSunny.3 mph54%29.95 "Hg10 mi
5:35 PM72 °FSunny.5 mph57%29.96 "Hg10 mi
5:15 PM71 °FSunny.5 mph58%29.95 "Hg10 mi
4:55 PM72 °FSunny.7 mph57%29.96 "Hg10 mi
4:35 PM72 °FSunny.7 mph57%29.96 "Hg10 mi
4:15 PM71 °FScattered clouds.5 mph58%29.96 "Hg10 mi
3:55 PM71 °FScattered clouds.6 mph59%29.96 "Hg10 mi
3:15 PM72 °FScattered clouds.6 mph58%29.96 "Hg10 mi
2:55 PM72 °FScattered clouds.7 mph59%29.97 "Hg10 mi
1:55 PM71 °FScattered clouds.7 mph63%29.97 "Hg10 mi
1:15 PM70 °FScattered clouds.5 mph61%29.98 "Hg10 mi
12:55 PM70 °FPartly sunny.8 mph63%29.97 "Hg10 mi
Weather by CustomWeather, © 2015

See weather overviewHow to use our weather pages